Location: Unspecified
(51.0000°N, 12.0000°E)
Time: 18:42:39

Tiangong 2 - Visible Passes

Search period start: 22 March 2018 00:00
Search period end: 01 April 2018 01:00
Orbit: 383 x 388 km, 42.8° (Epoch: 22 March)

Date Brightness Start Highest point End Pass type
(mag) Time Alt. Az. Time Alt. Az. Time Alt. Az.
22 Mar 3.1 04:50:48 15° SSW 04:51:16 16° SSW 04:53:15 10° SSE visible
23 Mar 3.9 03:54:23 11° SE 03:54:23 11° SE 03:54:30 10° SE visible
24 Mar 3.6 04:30:18 11° S 04:30:18 11° S 04:30:43 10° S visible
